Powrót do katalogu

STARLINK-36818

AktywnyŁącznośćSSO
NORAD 67879·PAYLOAD·🇺🇸 United States

Wystrzelony Feb 21, 2026 z Vandenberg Space Force Base

Loading…

Następne Przeloty (najbliższe 24 godziny)

TLE

ŚwieżeSource: CelesTrak SupGP

Epoka: Sep 14, 2026, 21:33 UTC

1 67879C 26035A   26257.89840278 -.00071582  00000+0 -22223-2 0  2575
2 67879  97.2847 189.7484 0001722  91.2718 116.8311 15.33472206    12

Śledź STARLINK-36818 w czasie rzeczywistym z AllMySat

Download on the App Store